Regional Weather Roundup
Issued by NWS

Home | Current Version | Previous Version | Graphics & Text | Print | Product List | Glossary On
Versions: 1 2 3 4 5 6 7 8 9 10 11 12 13 14 15 16 17 18 19 20 21 22 23 24 25 26 27 28 29 30 31 32 33 34 35 36 37 38 39 40 41 42 43 44 45 46 47 48 49 50
000
ASUS43 KMPX 241010
RWRMN
WEATHER ROUNDUP FOR MINNESOTA
NATIONAL WEATHER SERVICE TWIN CITIES/CHANHASSEN MN
500 AM CDT SAT JUN 24 2017


NOTE: "FAIR" INDICATES FEW OR NO CLOUDS BELOW 12,000 FEET WITH NO
SIGNIFICANT WEATHER AND/OR OBSTRUCTIONS TO VISIBILITY. N/A MEANS
CURRENT SKY AND/OR WEATHER CONDITIONS ARE NOT AVAILABLE.

MNZ060>063-068>070-241100-
   Twin Cities Metro

CITY           SKY/WX    TMP DP  RH WIND       PRES   REMARKS
TWIN CITIES    PTCLDY    56  46  69 W8        29.97R
ST PAUL        CLEAR     55  47  74 W8        29.97R
CRYSTAL        CLEAR     52  44  74 W7        29.96R
BLAINE         CLEAR     54  45  71 W5        29.96R
LAKEVILLE      CLEAR     52  46  82 W7        29.98R
EDEN PRAIRIE   CLEAR     55  45  68 W7        29.97R
SOUTH ST PAUL  CLEAR     55  46  71 W5        29.96R
LAKE ELMO      FAIR      54  46  76 NW6       29.97R
$$
MNZ001>005-007-008-013>017-022>024-027-028-241100-
   Northwest Minnesota

CITY           SKY/WX    TMP DP  RH WIND       PRES   REMARKS
BEMIDJI        MOCLDY    47  42  82 W8        29.93S
HALLOCK        CLOUDY    52  46  82 NW10      29.94R
ROSEAU           N/A     48  43  81 W7        29.91R
WARROAD        CLEAR     48  45  87 SW5       29.91R
THIEF RVR FALL CLOUDY    50  42  74 W10       29.95R
CROOKSTON      CLOUDY    46  43  87 W8        29.96S
FOSSTON        CLOUDY    48  41  76 W7        29.96R
DETROIT LAKES  CLEAR     48  39  71 W10       29.99S
MOORHEAD       MOCLDY    48  39  71 W8        30.00S
PARK RAPIDS    PTCLDY    44  38  79 W8        29.95S
MAHNOMEN       FAIR      44  40  85 W9        29.97R
$$
MNZ006-009>011-018-025>026-241100-
   North Central Minnesota

CITY           SKY/WX    TMP DP  RH WIND       PRES   REMARKS
BAUDETTE       CLOUDY    50  48  93 W10       29.88R
FLAG ISLAND    MOCLDY    52  48  87 NW16G22   29.86S
INTL FALLS     CLOUDY    52  49  89 W7        29.86R
WASKISH        LGT RAIN  52  46  82 NW12      29.90S
BIG FORK       RAIN      52  48  87 W3        29.89S
LONGVILLE      CLEAR     46  43  87 W5        29.93R
GRAND RAPIDS   CLOUDY    51  45  79 W8        29.92R
CRANE LAKE     CLOUDY    52  48  87 W5        29.86S
ORR            CLOUDY    52  46  82 W7        29.84S
COOK           CLOUDY    52  48  87 W9        29.87S
WALKER         CLOUDY    47  41  81 W6        29.93S
$$
MNZ012-019>021-037-241100-
   Northeast Minnesota

CITY           SKY/WX    TMP DP  RH WIND       PRES   REMARKS
DULUTH         MOCLDY    52  48  86 NW9       29.86S
ELY            CLOUDY    52  50  93 W8        29.84S
HIBBING        CLOUDY    51  46  83 NW10      29.87S
EVELETH        CLOUDY    53  46  76 W8        29.88R
DULUTH HARBOR  CLOUDY    57  50  77 SW7       29.88R
TWO HARBORS    CLOUDY    55  50  82 W5        29.83S
SILVER BAY     CLOUDY    55  52  88 W3        29.82R
GRAND MARAIS     N/A     60  52  74 NW10G18   29.77R
G MARAIS ARPRT CLOUDY    54  46  76 W6        29.81S
$$
MNZ029>031-032-039>041-046>048-054>057-064-241100-
   West Central Minnesota

CITY           SKY/WX    TMP DP  RH WIND       PRES   REMARKS
FERGUS FALLS   CLEAR     45  39  81 CALM      30.00R
WHEATON        CLEAR     48  41  76 W3        30.05R
MORRIS         CLEAR     48  43  81 W8        30.01S
ALEXANDRIA     CLEAR     48  41  76 W9        30.01S
ELBOW LAKE     FAIR      44  40  86 NW5       30.02R
WADENA         CLEAR     48  39  71 W8        29.97R
GLENWOOD       CLEAR     46  41  81 W8        30.01S
APPLETON       CLEAR     46  43  87 W6        30.03S
BENSON         CLEAR     46  43  87 NW6       30.04S
ORTONVILLE     CLEAR     48  39  71 W5        30.04S
MADISON        CLEAR     48  45  87 W6        30.05R
WILLMAR        FAIR      48  45  87 W9        30.04R
$$
MNZ033>034-036-042>043-049>051-058-059-241100-
   Central Minnesota

CITY           SKY/WX    TMP DP  RH WIND       PRES   REMARKS
ST CLOUD       CLOUDY    53  43  68 W6        29.97R
SAUK CENTRE    FAIR      47  42  82 W8        30.00R
PAYNESVILLE    CLEAR     46  42  85 W7        30.01R
AITKIN         MOCLDY    46  43  87 CALM      29.92R
PINE RIVER     CLEAR     46  41  81 W3        29.97S
BRAINERD       CLOUDY    52  41  66 W10       29.95R
STAPLES        MOCLDY    46  39  76 W7        29.97R
LONG PRAIRIE   FAIR      48  41  76 W7        30.00R
LITTLE FALLS   MOCLDY    48  37  66 W5        29.97R
LITCHFIELD     PTCLDY    54  45  71 W10       30.01R
BUFFALO        PTCLDY    53  45  73 W7        29.99R
MAPLE LAKE     MOCLDY    53  46  79 W5        30.00R
HUTCHINSON     CLOUDY    50  45  84 W9        30.02R
$$
MNZ037-044-045-052-053-241100-
   East Central Minnesota

CITY           SKY/WX    TMP DP  RH WIND       PRES   REMARKS
PRINCETON      PTCLDY    50  45  81 W7        29.97R
MORA           CLEAR     48  43  81 W8        29.96R
CAMBRIDGE      PTCLDY    54  43  66 W5        29.94R
RUSH CITY      MOCLDY    50  46  87 W5        29.94R
MOOSE LAKE     CLEAR     46  45  93 W3        29.89S
HINCKLEY       FAIR      46  46 100 W5        29.93R
CLOQUET        CLOUDY    52  46  82 W9        29.88S
MCGREGOR       MOCLDY    50  43  76 W7        29.92R
$$
MNZ071>073-080-081-089-090-097-098-241100-
   Southwest Minnesota

CITY           SKY/WX    TMP DP  RH WIND       PRES   REMARKS
MONTEVIDEO     CLEAR     48  43  81 NW5       30.04S
GRANITE FALLS  CLEAR     49  44  83 W8        30.06S
CANBY          CLEAR     49  42  76 CALM      30.07S
MARSHALL       CLEAR     49  42  77 W10       30.07R
REDWOOD FALLS  CLEAR     49  42  77 W8        30.04R
OLIVIA         CLEAR     50  45  81 W8        30.03R
PIPESTONE      CLEAR     46  41  81 W5        30.09S
WINDOM         CLEAR     48  43  81 W8        30.07R
WORTHINGTON    CLEAR     45  42  89 W9        30.10R
JACKSON        CLEAR     48  43  81 CALM      30.08R
TRACY          CLEAR     51  43  73 W6        30.07S
SLAYTON        CLEAR     48  41  76 W9        30.09S
$$
MNZ065>067-074>077-082>085-091>093-241100-
   South Central Minnesota

CITY           SKY/WX    TMP DP  RH WIND       PRES   REMARKS
MANKATO        CLEAR     53  43  68 W12       30.02R
NEW ULM        CLEAR     48  43  81 W10       30.03R
ST JAMES       CLEAR     48  43  81 W9        30.06R
FAIRMONT       CLEAR     51  44  77 W12       30.05S
GLENCOE        CLEAR     53  46  79 W8        30.00R
FARIBAULT      PTCLDY    54  46  76 W9        29.99R
OWATONNA       PTCLDY    52  46  82 W8        30.00R
WASECA         CLEAR     46  43  87 W6        30.02R
ALBERT LEA     CLEAR     54  45  71 W6        30.01S
$$
MNZ078>079-086>088-094>096-241100-
   Southeast Minnesota

CITY           SKY/WX    TMP DP  RH WIND       PRES   REMARKS
ROCHESTER      CLEAR     51  48  89 W9        29.98S
RED WING       CLEAR     54  46  76 NW3       29.95R
STANTON        CLEAR     52  47  82 W5        29.97R
DODGE CENTER   CLEAR     52  46  82 W12       29.99R
WINONA         CLEAR     55  50  82 NW8       29.95S
AUSTIN         CLEAR     54  46  76 W7        30.00R
PRESTON        CLEAR     51  46  86 W7        29.99R
$$
ABBREVIATIONS USED IN REMARKS
   TC - TEMPERATURES IN CELSIUS
  WCI - WIND CHILL INDEX
   HX - HEAT INDEX
  VSB - VISIBILITY
$$




USA.gov is the U.S. government's official web portal to all federal, state and local government web resources and services.